Regional Weather Roundup
Issued by NWS

Home | Current Version | Previous Version | Text Only | Print | Product List | Glossary Off
Versions: 1 2 3 4 5 6 7 8 9 10 11 12 13 14 15 16 17 18 19 20 21 22 23 24 25 26 27 28 29 30 31 32 33 34 35 36 37 38 39 40 41 42 43 44 45 46 47 48 49 50

594
ASUS45 KTFX 192010
RWRMT
MONTANA REGIONAL WEATHER ROUNDUP
NATIONAL WEATHER SERVICE GREAT FALLS MT
100 PM MST SUN NOV 19 2017

NOTE: "FAIR" INDICATES FEW OR NO CLOUDS BELOW 12000 FEET WITH NO
SIGNIFICANT WEATHER AND/OR OBSTRUCTIONS TO VISIBILITY.

MTZ001>007-043-192100-
WEST OF THE DIVIDE

CITY           SKY/WX    TMP DP  RH WIND       PRES   REMARKS
KALISPELL      FAIR      39  29  67 SW8       29.91F
MISSOULA       FAIR      36  24  62 CALM      29.97F
BUTTE          FAIR      32  14  47 E3        29.93F
MULLAN PASS    FAIR      27  20  75 SW10G25   29.86F WCI  17
ANACONDA         N/A     43  12  28 S13G20    29.91F
DEER LODGE       N/A     34  19  55 CALM      29.93F
EUREKA           N/A     43  21  42 MISG      29.88F
HAMILTON         N/A     48  12  23 SE10      29.95F
LIBBY            N/A     34  28  80 CALM      29.90F
PLAINS           N/A     38  28  67 CALM      29.96F
RONAN            N/A     41  28  60 CALM      29.97F
$$

MTZ008-052>055-192100-
SOUTHWEST MONTANA

CITY           SKY/WX    TMP DP  RH WIND       PRES   REMARKS
BOZEMAN        FAIR      32  21  64 CALM      29.95F
DILLON         FAIR      45  14  28 SW12      29.96F
W YELLOWSTONE  FAIR      28  14  54 SW17G24   30.10F WCI  16
ENNIS          CLOUDY    41  10  28 S26G38    30.02F
TWIN BRIDGES     N/A     44  14  29 CALM      29.96F
$$

MTZ009-010-012-014-046-048-049-054-192100-
EAST SLOPES AND CENTRAL MONTANA

CITY           SKY/WX    TMP DP  RH WIND       PRES   REMARKS
CUT BANK       FAIR      44  14  29 SW38G45   29.65F
GREAT FALLS    FAIR      47   8  20 SW35G45   29.76F
MALMSTROM AFB  FAIR      47   8  20 SW37G44   29.76F
HELENA         FAIR      38  21  50 E7        29.90F
BOWMANS CRNR   FAIR      43  12  27 S32G41    29.74F
CHOTEAU          N/A     48   9  20 SW14G22   29.72F
FAIRFIELD      FAIR      46  11  24 S25G35    29.71F
POWER          FAIR      44  11  25 S29G38    29.73F
RAYNESFORD     FAIR      50   3  14 W41G58    29.74F
ULM            FAIR      48   9  20 SW25G35   29.80F
$$

MTZ011-013-016-021-045-047-050-051-192100-
NORTH CENTRAL MONTANA

CITY           SKY/WX    TMP DP  RH WIND       PRES   REMARKS
HAVRE          FAIR      48  20  32 SW29      29.66F
LEWISTOWN      FAIR      49  11  21 SW24G35   29.76F
N BAR RANCH    FAIR      50   7  17 CALM      29.77S
CHINOOK          N/A     52  12  20 SW20G36   29.64F
DENTON         FAIR      51  10  18 W26G38    29.68F
GEYSER         FAIR      50   5  16 W32G43    29.74F
GRASS RANGE    FAIR      52   7  16 W20G26    29.71F
STANFORD       FAIR      52   3  13 W32G40    29.73F
WINIFRED       FAIR      50  12  22 W17G29    29.72F
$$

MTZ017>020-022>027-061-062-192100-
NORTHEAST MONTANA

CITY           SKY/WX    TMP DP  RH WIND       PRES   REMARKS
GLASGOW        FAIR      43  28  55 SE8       29.71F
GLENDIVE       FAIR      42  22  44 S14       29.78F
JORDAN           N/A     48  23  37 W8        29.72F
SIDNEY         FAIR      38  24  57 S10       29.77F WCI  31
WOLF POINT     FAIR      42  25  50 NW5       29.74F
MALTA          SUNNY     43  27  52 NE5       29.68F
PLENTYWOOD       N/A     39  27  60 CALM      29.73F
POPLAR           N/A     43  23  45 CALM      29.75F
SCOBEY           N/A     43  20  40 S3        29.70F
$$

MTZ028>42-056>058-192100-
SOUTHCENTRAL AND SOUTHEAST MONTANA

CITY           SKY/WX    TMP DP  RH WIND       PRES   REMARKS
BAKER          FAIR      46  20  35 W13       29.80F
BILLINGS       PTSUNNY   47  16  29 SW15      29.83F
LIVINGSTON     FAIR      43  14  31 SW31G58   29.85F
MILES CITY     FAIR      44  26  49 SE5       29.78F
BIG TIMBER     SUNNY     46  14  27 W14G23    29.88F
EKALAKA          N/A     46  13  26 S3        29.80F
FORSYTH          N/A     52  18  25 SW9G18    29.77F
HARLOWTON      PTSUNNY   40  18  40 W32G43    29.81F
LAUREL           N/A     46  14  27 SW22G33   29.83F
$$

REGIONAL REPORTS...DAKOTAS

CITY           SKY/WX    TMP DP  RH WIND       PRES   REMARKS
WILLISTON      FAIR      44  24  45 SW9       29.77F
MINOT          FAIR      40  25  55 N5        29.77S
DICKINSON      FAIR      44  20  38 W9        29.78F
BEACH          FAIR      41  19  42 SW6       29.82F
CROSBY         FAIR      37  25  60 SW12      29.74F WCI  30
TIOGA          FAIR      37  25  60 SW9       29.76F WCI  31
BISMARCK       FAIR      48  27  44 CALM      29.81F
GRAND FORKS    FAIR      33  25  72 SW7       29.80F WCI  27
FARGO          FAIR      45  25  45 SW14      29.81F
BUFFALO SD       N/A     49  20  31 SW10      29.76F
RAPID CITY     FAIR      54  18  24 S6        29.87F
$$

REGIONAL REPORTS...WYOMING/IDAHO/WASHINGTON

CITY           SKY/WX    TMP DP  RH WIND       PRES   REMARKS
GILLETTE       FAIR      52  14  22 SW20      29.84F
SHERIDAN       FAIR      50  29  44 CALM      29.82F
BUFFALO WY     FAIR      37  21  52 CALM      29.84F
CODY           FAIR      47   4  17 W9G18     29.92F
YELLOWSTONE LA   N/A     26  17  68 CALM      30.11F
IDAHO FALLS    FAIR      37  21  52 CALM      30.17F
SALMON         FAIR      39  20  46 N6        30.07F
BOISE          FAIR      45  25  45 E5        30.13F
SPOKANE        CLOUDY    41  27  57 S14G21    29.90F
$$

REGIONAL REPORTS...ALBERTA

CITY           SKY/WX    TMP DP  RH WIND       PRES   REMARKS
EDMONTON       PTSUNNY   23  14  68 E8        29.30F WCI  14
CALGARY        PTSUNNY   39  23  52 S6        29.41F
LETHBRIDGE     PTSUNNY   39  25  56 W8        29.60F
MEDICINE HAT   CLOUDY    41  28  60 SW25G33   29.53F
$$

REGIONAL REPORTS...SASKATCHEWAN

CITY           SKY/WX    TMP DP  RH WIND       PRES   REMARKS
SWIFT CURRENT  SUNNY     36  25  64 SW18      29.53F WCI  25
REGINA         PTSUNNY   21  18  86 SE13      29.64F WCI   9
SASKATOON      PTSUNNY   18  10  73 E12       29.61F WCI   5
$$




USA.gov is the U.S. government's official web portal to all federal, state and local government web resources and services.